Overview Statistics Trail Chart Weather Telemetry Raw packets
 

This is the latest recevied weather packets stored in our database for station/object SV9TNF-51. If no packets are shown the sender has not sent any weather packets the latest 10 day(s).

<< 26 27 28 29 30 31 32 >>
Time Temp. Humidity Pressure Rain* Wind** Luminosity Snow
1788490171 24.44° C 56% 1010.5 hPa 0 mm 0 m/s - -
1788489870 24.44° C 57% 1010.5 hPa 0 mm 2.68 m/s, 139° - -
1788489571 24.44° C 56% 1010.5 hPa 0 mm 1.34 m/s, 132° - -
1788489270 24.44° C 57% 1009.8 hPa 0 mm 1.79 m/s, 144° - -
1788488970 24.44° C 57% 1009.8 hPa 0 mm 1.34 m/s, 156° - -
1788488670 24.44° C 58% 1010.5 hPa 0 mm 1.79 m/s, 93° - -
1788488370 24.44° C 57% 1010.5 hPa 0 mm 0.89 m/s, 135° - -
1788488070 24.44° C 58% 1010.5 hPa 0 mm 0 m/s - -
1788487770 24.44° C 61% 1010.5 hPa 0 mm 0 m/s - -
1788487470 24.44° C 61% 1010.5 hPa 0 mm 0.89 m/s, 133° - -
1788487170 24.44° C 62% 1009.8 hPa 0 mm 0 m/s - -
1788486869 24.44° C 62% 1009.8 hPa 0 mm 0 m/s - -
1788486570 24.44° C 62% 1009.8 hPa 0 mm 0 m/s - -
1788486269 24.44° C 63% 1009.8 hPa 0 mm 0.89 m/s, 124° - -
1788485969 24.44° C 62% 1009.8 hPa 0 mm 1.34 m/s, 139° - -
1788485670 24.44° C 63% 1009.8 hPa 0 mm 1.34 m/s, 140° - -
1788485369 24.44° C 63% 1009.8 hPa 0 mm 0.89 m/s, 142° - -
1788485069 24.44° C 64% 1009.8 hPa 0 mm 0 m/s - -
1788484769 24.44° C 64% 1009.8 hPa 0 mm 0 m/s - -
1788484469 24.44° C 64% 1009.8 hPa 0 mm 1.34 m/s, 129° - -
1788484169 24.44° C 61% 1010.5 hPa 0 mm 0 m/s - -
1788483868 24.44° C 62% 1010.5 hPa 0 mm 0.89 m/s, 133° - -
1788483568 24.44° C 62% 1009.8 hPa 0 mm 1.79 m/s, 141° - -
1788483268 24.44° C 62% 1009.8 hPa 0 mm 1.79 m/s, 148° - -
1788482968 24.44° C 61% 1010.5 hPa 0 mm 1.79 m/s, 149° - -

* Rain latest hour (hover to see other rain measurements)
** Current wind speed in m/s (hover to see current wind gust speed)